sat.trackr.live / text

‹ back to catalog

TIANQI-15

NORAD 49027 · 2021-065B

PAYLOAD ACTIVE UNKNOWN

§ Identity

Operator
Country
PRC
Launch date
2021-07-19
Launch site
XICLF
Launch vehicle
Mass (kg)
RCS (m²)

External: N2YO · Heavens-Above · Gunter

§ Orbital elements

Epoch: 2026-09-20T22:17:11.541120Z

Period
95.28 min
Inclination
34.9996°
Eccentricity
0.0006000
Mean motion
15.11283827 rev/d
Perigee alt
528.1 km
Apogee alt
536.4 km
Semi-major
6,910.4 km
B*
1.8574e-4
RAAN
344.6109°
Arg perigee
185.2331°
Mean anomaly
174.8318°
Rev number
28,376

§ Raw data

TIANQI-151 49027U 21065B   26263.92860580  .00003165  00000+0  18574-3 0  99952 49027  34.9996 344.6109 0006000 185.2331 174.8318 15.11283827283766

JSON: /api/v1/satellites/49027 · /tle

For live sub-satellite position, see the globe view (requires WebGL).

§ Visibility from observer

Set your observer location to see the next 7 days of passes ≥ 10°. The values pass through the URL so the page stays shareable.

No JS? Fill the form by hand. The geolocation button needs JavaScript.